Location: Mason Neck State Park
(38.6428°N, 77.1981°W)
Time: 22:36:32
(UTC-05:00)

Daily predictions for brighter satellites

Satellite Brightness Start Highest point End
(mag) Time Altitude Azimuth Time Altitude Azimuth Time Altitude Azimuth
Cosmos 2237 Rocket 2.3 17:37:01 10° S 17:42:32 62° ESE 17:48:06 10° NNE
USA 215 4.1 17:37:05 10° E 17:42:41 31° NNE 17:48:16 10° NNW
Cosmos 44 Rocket 3.8 17:37:52 10° SW 17:42:59 68° WNW 17:48:01 10° NNE
NOSS 0 Rocket 4.0 17:38:21 10° SSW 17:44:34 78° ESE 17:50:48 10° NNE
COSMOS 2428 4.0 17:42:05 10° SW 17:47:25 40° WNW 17:52:46 10° N
BREEZE-M DEB (TANK) 3.0 17:40:56 10° NW 17:49:09 80° SW 17:52:14 10° SE
SL-16 R/B 3.1 17:44:50 10° SSE 17:49:36 29° ESE 17:54:23 10° NE
Cosmos 1340 Rocket 3.7 17:46:35 10° SSE 17:49:58 28° E 17:53:22 10° NNE
Cosmos 1300 2.9 17:47:05 10° N 17:50:50 49° E 17:54:32 10° SSE
SL-14 R/B 3.4 17:47:22 10° S 17:51:10 52° E 17:55:03 10° NNE
Cosmos 1634 Rocket 4.0 17:46:15 10° N 17:52:27 74° E 17:58:36 10° SSE
Abrixas 2.5 17:49:53 10° WSW 17:52:47 74° NNW 17:55:43 10° NE
Cosmos 1461 3.9 17:49:37 10° S 17:53:15 28° ESE 17:56:48 10° NE
Cosmos 2058 3.3 17:50:01 10° SSE 17:53:52 41° E 17:57:44 10° NNE
Cosmos 1484 Rocket 3.0 17:50:57 10° SSE 17:54:45 51° ENE 17:58:38 10° N
CZ-4 R/B 4.4 17:54:30 10° SSE 17:58:38 87° ENE 18:02:48 10° NNW
Cosmos 304 Rocket 4.3 17:56:09 10° S 18:00:35 39° ESE 18:05:03 10° NE
Cosmos 2297 4.3 17:56:58 10° N 18:02:08 34° ENE 18:07:17 10° ESE
Lacrosse 5 4.3 18:06:33 10° NNW 18:06:54 10° N 18:07:16 10° N
Cosmos 1844 Rocket 4.2 18:03:53 10° NW 18:09:11 42° WSW 18:14:26 10° S
Cosmos 1356 Rocket 4.1 18:12:06 10° SSE 18:15:35 29° E 18:19:04 10° NNE
Meteor 1-28 Rocket 3.3 18:12:07 10° NNE 18:15:46 52° E 18:19:24 10° S
OTV 4 2.4 18:13:35 10° W 18:16:09 26° SSW 18:18:41 10° SE
Cosmos 1125 Rocket 3.8 18:11:46 10° NNW 18:16:57 72° WSW 18:22:06 10° S
CZ-2C R/B 4.2 18:12:24 10° SSW 18:16:58 36° W 18:21:27 10° NNW
Transit 2A Rocket 4.4 18:12:56 10° NNW 18:17:14 67° ENE 18:21:32 10° SE
CENTAUR R/B 4.2 18:12:27 10° W 18:17:40 27° NW 18:23:27 10° NNE
Meteor 2-10 3.9 18:13:00 10° N 18:18:07 70° E 18:23:21 10° SSE
YAOGAN 1 4.0 18:14:23 10° S 18:18:28 41° W 18:22:34 10° NNW
USA 229 DEB 4.5 18:14:20 10° S 18:20:11 31° ESE 18:24:43 16° ENE
USA 229 4.5 18:14:27 10° S 18:20:17 31° ESE 18:24:46 16° ENE
COSMO-SKYMED 1 2.6 18:15:56 10° NNE 18:20:18 89° W 18:24:39 10° SSW
Cosmos 1707 Rocket 4.1 18:16:20 10° N 18:20:19 35° ENE 18:24:18 10° SE
DMSP B5D1-3 4.5 18:16:38 10° NNE 18:21:43 66° ESE 18:26:46 10° S
Resurs 01 Rocket 2.8 18:26:16 20° ENE 18:26:53 21° ENE 18:30:11 10° NNE
Meteor 1-11 4.4 18:23:35 10° SSW 18:29:16 80° W 18:35:03 10° N
Cosmos 1666 Rocket 3.9 18:25:20 10° SSE 18:29:25 42° E 18:33:33 10° NNE
Lacrosse 5 rocket 1.1 18:26:33 10° NW 18:30:22 82° NE 18:34:23 10° SE
METEOR-M 4.2 18:27:24 10° SSE 18:32:36 55° ENE 18:37:50 10° N
Cosmos 1184 Rocket 3.6 18:29:49 10° SSE 18:32:49 31° E 18:33:17 30° ENE
Timation 1 Rocket 4.3 18:27:31 10° NNW 18:33:33 68° ENE 18:39:31 10° SSE
Cosmos 1538 Rocket 4.1 18:30:24 10° S 18:35:35 59° ESE 18:40:45 10° NNE
Cosmos 2151 4.2 18:31:56 10° SSW 18:35:54 42° W 18:39:55 10° N
Iridium 4 Rocket 3.8 18:34:48 10° SE 18:38:45 30° E 18:39:48 27° ENE
Cosmos 2279 Rocket 4.1 18:34:57 10° N 18:41:10 78° W 18:47:23 10° S
ALOS 2.8 18:41:39 10° SE 18:45:53 36° ENE 18:50:09 10° N
NOAA 12 4.0 18:43:29 10° SSE 18:48:43 84° ENE 18:54:00 10° NNW
Cosmos 2333 Rocket 4.0 18:45:27 10° WSW 18:50:17 29° WNW 18:55:08 10° N
Cosmos 2219 Rocket 4.3 18:47:22 10° WSW 18:51:42 22° NW 18:56:01 10° N
Cosmos 1626 2.1 18:49:49 10° S 18:53:33 82° W 18:56:51 13° N
Cosmos 1603 4.2 18:48:59 10° S 18:54:02 36° ESE 18:55:01 33° E
Milstar 3 4.5 18:52:11 10° WSW 18:57:27 24° SSW 19:03:08 10° SE
SJ-6B 2.8 18:53:42 10° SSE 18:57:45 87° ENE 19:01:55 10° NNW
Nadezhda 4 Rocket 3.9 18:53:09 10° S 18:59:23 83° E 19:05:44 10° N
Cosmos 2242 Rocket 3.6 18:57:06 10° N 19:01:25 52° E 19:05:45 10° SSE
Cosmos 1703 4.3 18:58:11 10° SSW 19:01:56 46° W 19:05:43 10° N
Cosmos 2278 Rocket 3.9 18:58:28 10° NW 19:03:32 34° WSW 19:08:35 10° SSW
Cosmos 1455 2.1 19:03:13 10° N 19:07:02 85° W 19:10:51 10° S
SL-19 R/B 4.2 19:06:20 10° SSE 19:12:16 79° ENE 19:17:54 10° NNW
Lacrosse 4 Rocket 3.1 19:10:44 10° NNW 19:12:09 20° N 19:12:09 20° N
Cosmos 773 Rocket 3.9 19:11:43 10° SSW 19:16:52 87° WNW 19:19:20 32° NNE
FREGAT/IRIS 4.0 19:15:08 10° S 19:18:01 39° W 19:20:55 10° NNW
Cosmos 1092 Rocket 3.9 19:13:24 10° S 19:19:44 86° E 19:26:07 10° N
USA 215 3.2 19:21:35 30° SE 19:25:09 90° NE 19:31:45 10° NW
Sich 1 4.1 19:21:06 10° SSW 19:25:20 44° W 19:29:36 10° N
Cosmos 1633 Rocket 4.2 19:28:39 10° SSW 19:32:49 42° W 19:36:08 15° NNW
Cosmos 2369 Rocket 4.1 19:28:10 10° N 19:29:27 16° N 19:29:27 16° N
SL-16 R/B 3.5 19:28:19 10° SW 19:33:31 37° WNW 19:37:58 14° N
Cosmos 2195 Rocket 4.3 19:38:52 10° S 19:44:58 88° E 19:46:13 60° N
CZ-3A R/B 3.3 19:55:55 10° NW 20:00:25 63° SW 20:01:32 53° S
Resurs 01 Rocket 3.3 20:03:50 32° WNW 20:03:50 32° WNW 20:07:11 10° NNW
USA 229 DEB 4.3 20:04:11 10° SW 20:10:49 51° NW 20:12:13 44° NNW
USA 229 4.3 20:04:16 10° SW 20:10:55 51° NW 20:12:16 45° NNW
